TimeMST,TemperatureF,Dew PointF,Humidity,Sea Level PressureIn,VisibilityMPH,Wind Direction,Wind SpeedMPH,Gust SpeedMPH,PrecipitationIn,Events,Conditions,WindDirDegrees,DateUTC
12:56 AM,37.9,10.0,32,30.26,10.0,Calm,Calm,-,N/A,,Clear,0,2012-11-05 07:56:00
1:56 AM,37.0,10.0,33,30.26,10.0,Calm,Calm,-,N/A,,Clear,0,2012-11-05 08:56:00
2:56 AM,36.0,10.0,34,30.26,10.0,Calm,Calm,-,N/A,,Clear,0,2012-11-05 09:56:00
3:56 AM,34.0,9.0,35,30.26,10.0,SE,3.5,-,N/A,,Clear,140,2012-11-05 10:56:00
4:56 AM,36.0,10.9,36,30.27,10.0,Calm,Calm,-,N/A,,Clear,0,2012-11-05 11:56:00
5:56 AM,30.0,7.0,38,30.34,10.0,Calm,Calm,-,N/A,,Clear,0,2012-11-05 12:56:00
6:56 AM,30.0,6.1,36,30.37,10.0,SE,5.8,-,N/A,,Clear,130,2012-11-05 13:56:00
7:56 AM,37.0,9.0,31,30.37,10.0,Calm,Calm,-,N/A,,Clear,0,2012-11-05 14:56:00
8:56 AM,44.1,12.9,28,30.36,10.0,Calm,Calm,-,N/A,,Clear,0,2012-11-05 15:56:00
9:56 AM,54.0,15.1,22,30.32,10.0,Calm,Calm,-,N/A,,Clear,0,2012-11-05 16:56:00
10:56 AM,59.0,18.0,20,30.32,10.0,Variable,3.5,-,N/A,,Clear,0,2012-11-05 17:56:00
11:56 AM,64.0,19.0,18,30.28,10.0,Calm,Calm,-,N/A,,Clear,0,2012-11-05 18:56:00
12:56 PM,66.9,19.0,16,30.24,10.0,Variable,4.6,-,N/A,,Clear,0,2012-11-05 19:56:00
1:56 PM,69.1,19.9,15,30.20,10.0,NW,8.1,-,N/A,,Clear,310,2012-11-05 20:56:00
2:56 PM,71.1,19.9,14,30.18,10.0,NNW,5.8,-,N/A,,Clear,340,2012-11-05 21:56:00
3:56 PM,71.1,21.0,15,30.19,10.0,North,3.5,-,N/A,,Clear,360,2012-11-05 22:56:00
4:56 PM,69.1,19.9,15,30.18,10.0,NW,6.9,-,N/A,,Clear,310,2012-11-05 23:56:00
5:56 PM,57.0,17.1,21,30.24,10.0,WSW,6.9,-,N/A,,Clear,240,2012-11-06 00:56:00
6:56 PM,51.1,15.1,24,30.25,10.0,SW,8.1,-,N/A,,Clear,220,2012-11-06 01:56:00
7:56 PM,50.0,17.1,27,30.25,10.0,SW,3.5,-,N/A,,Clear,230,2012-11-06 02:56:00
8:56 PM,46.9,17.1,30,30.24,10.0,SW,5.8,-,N/A,,Clear,230,2012-11-06 03:56:00
9:56 PM,48.0,18.0,30,30.22,10.0,Calm,Calm,-,N/A,,Clear,0,2012-11-06 04:56:00
10:56 PM,43.0,16.0,34,30.22,10.0,South,3.5,-,N/A,,Clear,180,2012-11-06 05:56:00
11:56 PM,44.1,18.0,35,30.20,10.0,WSW,3.5,-,N/A,,Clear,240,2012-11-06 06:56:00